Weather History for Leeuwarden, Netherlands

Change the Weather History Date:

Wednesday, May 22, 2013

  Actual Average Record
Temperature  
Mean Temperature 46 °F -  
Max Temperature 51 °F 63 °F 78 °F (2012)
Min Temperature 42 °F 49 °F 41 °F (1997)
Degree Days  
Heating Degree Days 18    
Moisture  
Dew Point 41 °F    
Average Humidity 76    
Maximum Humidity 93    
Minimum Humidity 58    
Precipitation  
Precipitation 0.00 in - - ()
Sea Level Pressure  
Sea Level Pressure 29.87 in    
Wind  
Wind Speed 18 mph ()    
Max Wind Speed 26 mph    
Max Gust Speed 39 mph    
Visibility 6.3 miles    
Events Rain    
Averages and records for this station are not official NWS values.
T = Trace of Precipitation, MM = Missing Value Source: Averaged Metar Reports

Daily Weather History Graph

Daily Weather History Graph

Search for Another Location

Airport:

Trip Planner

Search our weather history database for the weather conditions in past years. The results will help you decide how hot, cold, wet, or windy it might be!

Date:

Astronomy

May. 22, 2013 Rise Set
Actual Time 5:27 AM CEST 9:40 PM CEST
Civil Twilight 4:41 AM CEST 10:27 PM CEST
Nautical Twilight 3:32 AM CEST 11:36 PM CEST
Astronomical Twilight 2:06 AM CEST 1:01 AM CEST
Moon 6:22 PM CEST (5/22) 3:49 AM CEST (5/22)
Length of Visible Light 17h 46m
Length of Day
16h 13m
Waxing Gibbous, 89% of the Moon is Illuminated
May 22
Waxing Gibbous
May 25
Full
May 31
Last Quarter
Jun 8
New
Jun 16
First Quarter

Hourly Weather History & Observations

Time (CEST) Temp. Windchill Dew Point Humidity Pressure Visibility Wind Dir Wind Speed Gust Speed Precip Events Conditions
12:13 AM 48.2 °F - 44.6 °F 87% 29.83 in 6.2 mi NNW 19.6 mph - N/A   Overcast
12:14 AM 48.2 °F - 44.6 °F 87% 29.83 in 6.2 mi NNW 20.7 mph - N/A   Overcast
12:25 AM 48.2 °F - 44.6 °F 87% 29.83 in 6.2 mi North 20.7 mph - N/A   Overcast
12:55 AM 48.2 °F - 44.6 °F 87% 29.83 in 6.2 mi North 20.7 mph - N/A   Overcast
1:15 AM 48.2 °F - 44.6 °F 87% 29.83 in 6.2 mi North 18.4 mph - N/A   Overcast
1:25 AM 46.4 °F 39.2 °F 44.6 °F 93% 29.83 in 6.2 mi NNW 18.4 mph - N/A   Overcast
1:33 AM 48.2 °F - 44.6 °F 87% 29.83 in 4.3 mi NNW 17.3 mph - N/A   Overcast
1:55 AM 46.4 °F 39.8 °F 44.6 °F 93% 29.83 in 6.2 mi NNW 16.1 mph - N/A   Overcast
2:00 AM 47 °F - 44 °F 86% 29.85 in 8 mi NNW 17.9 mph - -   Unknown Precipitation
2:25 AM 46.4 °F 39.2 °F 42.8 °F 87% 29.83 in 6.2 mi NNW 18.4 mph - N/A   Overcast
2:30 AM 46.4 °F 39.2 °F 42.8 °F 87% 29.83 in 3.7 mi NNW 18.4 mph - N/A   Overcast
2:34 AM 46.4 °F 39.5 °F 42.8 °F 87% 29.83 in - NNW 17.3 mph - N/A   Overcast
2:44 AM 46.4 °F 39.2 °F 44.6 °F 93% 29.83 in 4.3 mi NNW 18.4 mph - N/A   Overcast
2:48 AM 46.4 °F 39.2 °F 42.8 °F 87% 29.83 in 5.0 mi NNW 18.4 mph - N/A   Mostly Cloudy
2:55 AM 46.4 °F 39.2 °F 42.8 °F 87% 29.83 in 6.2 mi NNW 18.4 mph - N/A   Overcast
3:08 AM 46.4 °F 39.0 °F 42.8 °F 87% 29.83 in 3.7 mi NNW 19.6 mph - N/A   Overcast
3:18 AM 46.4 °F 39.5 °F 42.8 °F 87% 29.83 in 6.2 mi NNW 17.3 mph - N/A   Overcast
3:25 AM 46.4 °F 39.2 °F 42.8 °F 87% 29.83 in 6.2 mi NNW 18.4 mph - N/A   Overcast
3:31 AM 46.4 °F 39.2 °F 42.8 °F 87% 29.83 in 6.2 mi NNW 18.4 mph - N/A   Overcast
3:38 AM 46.4 °F 39.2 °F 42.8 °F 87% 29.83 in 6.2 mi NNW 18.4 mph - N/A   Overcast
3:44 AM 46.4 °F 39.5 °F 42.8 °F 87% 29.83 in 6.2 mi NNW 17.3 mph - N/A   Overcast
3:55 AM 46.4 °F 39.0 °F 41.0 °F 81% 29.83 in 6.2 mi NNW 19.6 mph - N/A   Overcast
4:25 AM 46.4 °F 40.1 °F 41.0 °F 81% 29.83 in 6.2 mi NNW 15.0 mph - N/A   Overcast
4:55 AM 46.4 °F 39.8 °F 39.2 °F 76% 29.83 in 6.2 mi NNW 16.1 mph - N/A   Overcast
5:25 AM 46.4 °F 39.5 °F 41.0 °F 81% 29.83 in 6.2 mi NNW 17.3 mph - N/A   Overcast
5:55 AM 46.4 °F 39.0 °F 39.2 °F 76% 29.83 in 6.2 mi NNW 19.6 mph - N/A   Overcast
6:25 AM 46.4 °F 39.0 °F 39.2 °F 76% 29.83 in 6.2 mi NNW 19.6 mph - N/A   Overcast
6:55 AM 46.4 °F 38.5 °F 41.0 °F 81% 29.83 in 6.2 mi NNW 21.9 mph - N/A   Overcast
7:25 AM 46.4 °F 38.5 °F 39.2 °F 76% 29.83 in 6.2 mi NNW 21.9 mph - N/A   Overcast
7:55 AM 46.4 °F 39.2 °F 39.2 °F 76% 29.83 in 6.2 mi NNW 18.4 mph - N/A   Overcast
8:00 AM 47 °F - 40 °F 68% 29.85 in 11 mi NNW 17.9 mph - -   Partly Cloudy
8:25 AM 46.4 °F 38.7 °F 39.2 °F 76% 29.83 in 6.2 mi NNW 20.7 mph - N/A   Overcast
8:55 AM 46.4 °F 38.3 °F 39.2 °F 76% 29.83 in 6.2 mi NNW 23.0 mph - N/A   Overcast
9:25 AM 48.2 °F - 39.2 °F 71% 29.86 in 6.2 mi NNW 21.9 mph - N/A   Overcast
9:55 AM 48.2 °F - 41.0 °F 76% 29.86 in 6.2 mi NNW 20.7 mph - N/A   Overcast
10:09 AM 48.2 °F - 41.0 °F 76% 29.86 in 6.2 mi NNW 20.7 mph - N/A   Overcast
10:13 AM 48.2 °F - 41.0 °F 76% 29.86 in 6.2 mi NNW 20.7 mph - N/A   Overcast
10:25 AM 48.2 °F - 39.2 °F 71% 29.86 in 6.2 mi NNW 23.0 mph 34.5 mph N/A   Overcast
10:29 AM 48.2 °F - 39.2 °F 71% 29.86 in 6.2 mi NNW 23.0 mph - N/A   Overcast
10:34 AM 48.2 °F - 39.2 °F 71% 29.86 in 6.2 mi NNW 21.9 mph - N/A   Overcast
10:46 AM 48.2 °F - 39.2 °F 71% 29.86 in 6.2 mi NNW 20.7 mph - N/A   Overcast
10:55 AM 50.0 °F - 41.0 °F 71% 29.86 in 6.2 mi NNW 21.9 mph - N/A   Mostly Cloudy
11:09 AM 50.0 °F - 41.0 °F 71% 29.86 in 6.2 mi NNW 23.0 mph 35.7 mph N/A   Mostly Cloudy
11:25 AM 48.2 °F - 41.0 °F 76% 29.86 in - NNW 21.9 mph 38.0 mph N/A   Overcast
11:55 AM 50.0 °F - 41.0 °F 71% 29.86 in - NNW 24.2 mph - N/A   Mostly Cloudy
12:21 PM 50.0 °F - 42.8 °F 76% 29.89 in 6.2 mi NNW 24.2 mph - N/A   Mostly Cloudy
12:25 PM 50.0 °F - 42.8 °F 76% 29.89 in 6.2 mi NW 24.2 mph - N/A   Mostly Cloudy
12:29 PM 50.0 °F - 41.0 °F 71% 29.89 in 6.2 mi NW 24.2 mph - N/A   Overcast
12:55 PM 51.8 °F - 42.8 °F 71% 29.89 in 6.2 mi NNW 26.5 mph 39.1 mph N/A   Scattered Clouds
1:25 PM 50.0 °F - 41.0 °F 71% 29.89 in 6.2 mi NNW 24.2 mph - N/A   Overcast
1:55 PM 51.8 °F - 44.6 °F 76% 29.89 in 6.2 mi NNW 25.3 mph - N/A   Scattered Clouds
1:57 PM 51.8 °F - 42.8 °F 71% 29.89 in 6.2 mi NNW 24.2 mph - N/A   Mostly Cloudy
2:00 PM - - - % 29.90 in 12 mi NNW 24.6 mph - -   Partly Cloudy
2:00 PM 51.8 °F - 44.6 °F 76% 29.89 in 6.2 mi NW 24.2 mph - N/A   Mostly Cloudy
2:07 PM 51.8 °F - 42.8 °F 71% 29.89 in 6.2 mi NNW 23.0 mph - N/A   Mostly Cloudy
2:25 PM 51.8 °F - 42.8 °F 71% 29.89 in 6.2 mi NW 20.7 mph - N/A   Overcast
2:55 PM 51.8 °F - 42.8 °F 71% 29.89 in 6.2 mi NW 24.2 mph - N/A   Overcast
3:13 PM 51.8 °F - 42.8 °F 71% 29.89 in 6.2 mi NW 23.0 mph - N/A   Mostly Cloudy
3:15 PM 51.8 °F - 42.8 °F 71% 29.89 in 6.2 mi NW 21.9 mph - N/A   Mostly Cloudy
3:25 PM 50.0 °F - 41.0 °F 71% 29.89 in 6.2 mi NW 19.6 mph - N/A   Mostly Cloudy
3:29 PM 50.0 °F - 41.0 °F 71% 29.89 in 6.2 mi NW 20.7 mph - N/A Rain Light Rain
3:33 PM 50.0 °F - 42.8 °F 76% 29.89 in 6.2 mi NW 19.6 mph - N/A   Light Drizzle
3:50 PM 51.8 °F - 42.8 °F 71% 29.89 in 6.2 mi NW 23.0 mph - N/A   Mostly Cloudy
3:55 PM 50.0 °F - 41.0 °F 71% 29.89 in 6.2 mi NW 23.0 mph - N/A   Mostly Cloudy
4:15 PM 51.8 °F - 41.0 °F 67% 29.89 in 6.2 mi NW 24.2 mph - N/A   Overcast
4:25 PM 50.0 °F - 41.0 °F 71% 29.89 in 6.2 mi NW 23.0 mph - N/A   Mostly Cloudy
4:31 PM 51.8 °F - 42.8 °F 71% 29.92 in 6.2 mi NW 21.9 mph - N/A   Mostly Cloudy
4:33 PM 51.8 °F - 42.8 °F 71% 29.92 in 6.2 mi NW 23.0 mph - N/A   Mostly Cloudy
4:55 PM 51.8 °F - 42.8 °F 71% 29.92 in 6.2 mi NW 23.0 mph - N/A   Mostly Cloudy
5:06 PM 51.8 °F - 41.0 °F 67% 29.92 in 6.2 mi NW 24.2 mph - N/A   Scattered Clouds
5:25 PM 51.8 °F - 42.8 °F 71% 29.92 in 6.2 mi NW 23.0 mph - N/A   Mostly Cloudy
5:39 PM 51.8 °F - 39.2 °F 62% 29.92 in 6.2 mi NW 24.2 mph - N/A   Scattered Clouds
5:55 PM 48.2 °F - 37.4 °F 66% 29.92 in 6.2 mi NW 20.7 mph - N/A   Partly Cloudy
6:25 PM 48.2 °F - 37.4 °F 66% 29.92 in 6.2 mi NW 20.7 mph - N/A   Scattered Clouds
6:47 PM 48.2 °F - 39.2 °F 71% 29.92 in 6.2 mi NW 18.4 mph - N/A   Mostly Cloudy
6:55 PM 48.2 °F - 39.2 °F 71% 29.92 in 6.2 mi NW 17.3 mph - N/A   Mostly Cloudy
7:04 PM 48.2 °F - 37.4 °F 66% 29.92 in 6.2 mi NW 18.4 mph - N/A   Scattered Clouds
7:25 PM 48.2 °F - 37.4 °F 66% 29.92 in 6.2 mi NW 17.3 mph - N/A   Scattered Clouds
7:55 PM 48.2 °F - 37.4 °F 66% 29.92 in 6.2 mi WNW 15.0 mph - N/A   Mostly Cloudy
8:00 PM 48 °F - 38 °F 58% 29.92 in 11 mi WNW 15.7 mph - -   Partly Cloudy
8:25 PM 48.2 °F - 37.4 °F 66% 29.92 in 6.2 mi NW 16.1 mph - N/A   Mostly Cloudy
8:55 PM 46.4 °F 40.7 °F 37.4 °F 71% 29.92 in 6.2 mi WNW 12.7 mph - N/A   Scattered Clouds
9:25 PM 46.4 °F 41.5 °F 37.4 °F 71% 29.92 in 6.2 mi WNW 10.4 mph - N/A   Mostly Cloudy
9:55 PM 44.6 °F 40.2 °F 37.4 °F 76% 29.89 in 6.2 mi WNW 8.1 mph - N/A   Partly Cloudy
10:25 PM 42.8 °F 38.6 °F 37.4 °F 81% 29.89 in 6.2 mi WNW 6.9 mph - N/A   Partly Cloudy
10:55 PM 44.6 °F 40.7 °F 37.4 °F 76% 29.89 in 6.2 mi West 6.9 mph - N/A   Mostly Cloudy
11:25 PM 42.8 °F 39.3 °F 37.4 °F 81% 29.89 in 6.2 mi West 5.8 mph - N/A   Partly Cloudy
11:55 PM 42.8 °F 38.6 °F 37.4 °F 81% 29.89 in 6.2 mi WSW 6.9 mph - N/A   Overcast